Date_and_time,latitude,longitude,wind_speed,RelWindDirFrom,WindDirFrom,air_pressure,air_temperature,relative_humidity,Temp,platform_speed_wrt_ground,air_pressure_at_mean_sea_level,platform_orientation
2019-06-13 00:00,52.171075,-97.8540566666667,7.0,11.0,196,987.69,18.6,32,11.92,0.9,1013.89,219.2
2019-06-13 00:10,52.17111,-97.8541183333333,5.0,6.7,190,987.68,18.8,31,11.39,0.0,1013.86,219.2
2019-06-13 00:20,52.1785816666667,-97.8473533333333,3.3,6.5,163,987.58,18.6,34,11.05,3.1,1013.77,219.2
2019-06-13 00:30,52.2056416666667,-97.822775,5.0,6.1,63,987.49,18.2,39,11.70,11.1,1013.69,219.2
2019-06-13 00:40,52.2252266666667,-97.7897,5.9,13.0,114,987.35,17.5,44,11.80,10.1,1013.56,219.2
2019-06-13 00:50,52.23039,-97.7397233333333,11.0,12.2,134,987.21,18.2,39,11.56,11.2,1013.36,219.2
2019-06-13 01:00,52.2347183333333,-97.6895,11.1,11.9,140,987.17,17.5,46,10.67,11.2,1013.35,258.7
2019-06-13 01:10,52.2245433333333,-97.6461933333333,14.0,18.0,166,987.04,17.2,43,10.05,10.2,1013.20,258.7
2019-06-13 01:20,52.2046383333333,-97.607385,15.0,17.1,166,986.96,17.6,41,10.02,11.2,1013.08,258.7
2019-06-13 01:30,52.1852533333333,-97.568175,16.9,17.9,174,986.89,17.1,44,9.92,11.1,1013.00,258.7
2019-06-13 01:40,52.164995,-97.5308016666667,16.2,20.1,184,986.87,17.1,44,10.13,11.0,1013.00,258.7
2019-06-13 01:50,52.1429833333333,-97.535155,16.5,21.4,220,986.69,18.5,34,10.58,8.0,1012.73,258.7
2019-06-13 02:00,52.14325,-97.5347583333333,9.0,11.4,232,986.98,19.2,31,10.65,0.1,1012.98,116.6
2019-06-13 02:10,52.1432666666667,-97.534765,9.6,11.7,225,986.86,19.1,32,10.69,0.0,1012.87,116.6
2019-06-13 02:20,52.1433116666667,-97.5347833333333,9.8,12.4,224,986.80,18.8,33,10.67,0.0,1012.85,116.6
2019-06-13 02:30,52.1432983333333,-97.5347683333333,9.6,12.6,223,986.73,18.6,33,10.65,0.0,1012.82,116.6
2019-06-13 02:40,52.1433,-97.534765,9.7,11.9,225,986.68,18.3,33,10.65,0.0,1012.75,116.6
2019-06-13 02:50,52.143335,-97.5347966666667,10.2,13.0,223,986.65,17.9,34,10.65,0.0,1012.76,116.6
2019-06-13 03:00,52.1433316666667,-97.5347733333333,10.7,12.1,226,986.60,17.7,34,10.64,0.0,1012.74,97.9
2019-06-13 03:10,52.143335,-97.5347916666667,10.4,12.7,230,986.61,17.4,35,10.62,0.0,1012.75,97.9
2019-06-13 03:20,52.1433016666667,-97.5347666666667,10.5,12.3,232,986.59,17.1,35,10.59,0.0,1012.76,97.9
2019-06-13 03:30,52.1433033333333,-97.5347783333333,9.9,11.2,233,986.57,16.8,37,10.57,0.0,1012.76,97.9
2019-06-13 03:40,52.1433266666667,-97.5347783333333,10.5,12.3,230,986.45,16.5,39,10.57,0.0,1012.58,97.9
2019-06-13 03:50,52.1433216666667,-97.5347833333333,10.5,11.7,231,986.39,16.1,40,10.58,0.0,1012.51,97.9
2019-06-13 04:00,52.143315,-97.53478,10.8,12.3,231,986.30,15.9,41,10.61,0.0,1012.42,133.9
2019-06-13 04:10,52.1433116666667,-97.5347766666667,11.8,13.6,233,986.18,15.8,41,10.68,0.0,1012.32,133.9
2019-06-13 04:20,52.1433116666667,-97.5347733333333,11.8,14.2,233,986.16,15.8,41,10.74,0.0,1012.31,133.9
2019-06-13 04:30,52.14331,-97.5347733333333,11.6,13.5,232,986.10,15.5,43,10.72,0.0,1012.28,133.9
2019-06-13 04:40,52.1433116666667,-97.5347716666667,12.2,13.9,232,985.98,15.5,42,10.67,0.0,1012.17,133.9
2019-06-13 04:50,52.1433133333333,-97.5347733333333,12.0,13.7,230,985.90,15.4,42,10.69,0.0,1012.11,133.9
2019-06-13 05:00,52.1433266666667,-97.5347816666667,12.8,16.4,232,985.79,15.3,43,10.71,0.0,1012.01,341.7
2019-06-13 05:10,52.14335,-97.5347816666667,13.6,16.0,230,985.69,15.2,44,10.71,0.0,1011.92,341.7
2019-06-13 05:20,52.1433516666667,-97.5347766666667,13.3,15.6,231,985.67,15.0,45,10.70,0.0,1011.92,341.7
2019-06-13 05:30,52.1433616666667,-97.5347783333333,13.6,16.9,230,985.58,14.8,47,10.73,0.0,1011.85,341.7
2019-06-13 05:40,52.1434016666667,-97.53475,14.1,17.2,229,985.49,14.8,47,10.76,0.0,1011.78,341.7
2019-06-13 05:50,52.1434116666667,-97.5347233333333,14.0,16.3,229,985.40,14.8,46,10.74,0.0,1011.69,341.7
2019-06-13 06:00,52.143385,-97.5347266666667,13.6,16.2,228,985.35,14.7,46,10.81,0.0,1011.65,32.0
2019-06-13 06:10,52.14341,-97.5347383333333,14.9,17.8,228,985.21,14.7,45,10.81,0.0,1011.51,32.0
2019-06-13 06:20,52.1434116666667,-97.5347133333333,13.2,16.5,224,985.27,14.6,45,10.77,0.0,1011.60,32.0
2019-06-13 06:30,52.1434033333333,-97.5347133333333,12.6,15.2,222,985.22,14.4,45,10.74,0.0,1011.55,32.0
2019-06-13 06:40,52.143415,-97.534725,12.1,14.5,220,985.22,14.2,46,10.71,0.0,1011.56,32.0
2019-06-13 06:50,52.1434416666667,-97.5347566666667,11.3,14.2,218,985.22,13.8,47,10.69,0.0,1011.59,32.0
2019-06-13 07:00,52.1434416666667,-97.5347566666667,11.7,14.5,221,985.15,13.6,47,10.68,0.0,1011.53,360.0
2019-06-13 07:10,52.14348,-97.5348116666667,12.5,15.6,220,985.05,13.8,46,10.71,0.0,1011.43,360.0
2019-06-13 07:20,52.1434666666667,-97.5347666666667,13.5,16.2,216,984.92,14.0,46,10.71,0.0,1011.29,360.0
2019-06-13 07:30,52.1434816666667,-97.5347683333333,13.5,16.5,218,984.84,13.8,45,10.70,0.0,1011.22,360.0
2019-06-13 07:40,52.1434533333333,-97.5347433333333,12.6,15.5,220,984.87,13.7,44,10.69,0.0,1011.26,360.0
2019-06-13 07:50,52.1435,-97.53479,13.0,15.3,218,984.75,13.6,43,10.71,0.0,1011.14,360.0
2019-06-13 08:00,52.1434966666667,-97.53475,14.2,16.7,217,984.61,13.6,43,10.71,0.0,1011.00,9.6
2019-06-13 08:10,52.14351,-97.534775,14.3,17.9,215,984.51,13.6,43,10.69,0.0,1010.90,9.6
2019-06-13 08:20,52.1435216666667,-97.5347633333333,14.3,17.4,215,984.46,13.6,43,10.68,0.0,1010.86,9.6
2019-06-13 08:30,52.1435583333333,-97.53481,14.1,17.2,213,984.43,13.4,45,10.65,0.0,1010.85,9.6
2019-06-13 08:40,52.14354,-97.5348266666667,14.5,17.6,213,984.35,13.3,46,10.63,0.0,1010.79,9.6
2019-06-13 08:50,52.1435666666667,-97.534785,14.5,17.5,213,984.30,13.1,48,10.62,0.0,1010.75,9.6
2019-06-13 09:00,52.14356,-97.5348016666667,14.0,18.2,213,984.25,13.0,49,10.64,0.0,1010.70,349.2
2019-06-13 09:10,52.14354,-97.534765,14.4,19.1,214,984.14,12.8,51,10.65,0.0,1010.58,349.2
2019-06-13 09:20,52.1435366666667,-97.5347516666667,14.5,16.9,215,984.09,12.6,52,10.67,0.0,1010.55,349.2
2019-06-13 09:30,52.1435183333333,-97.534705,13.5,18.1,215,984.11,12.5,53,10.72,0.0,1010.58,349.2
2019-06-13 09:40,52.143505,-97.534685,13.9,17.2,217,984.05,12.4,54,10.73,0.0,1010.52,349.2
2019-06-13 09:50,52.1435016666667,-97.5347066666667,13.6,17.0,216,984.09,12.4,55,10.74,0.0,1010.57,349.2
2019-06-13 10:00,52.14352,-97.5347083333333,13.5,16.0,217,984.11,12.4,56,10.75,0.0,1010.59,24.2
2019-06-13 10:10,52.1434616666667,-97.5347583333333,12.6,14.7,217,984.11,12.4,57,10.75,0.0,1010.59,24.2
2019-06-13 10:20,52.159085,-97.5330966666667,8.9,16.4,239,984.32,12.2,58,10.70,5.6,1010.83,24.2
2019-06-13 10:30,52.1539716666667,-97.500975,12.3,21.2,194,984.16,12.1,60,10.11,7.3,1010.67,24.2
2019-06-13 10:40,52.13163,-97.4648716666667,19.5,22.7,189,983.91,12.9,58,10.41,11.3,1010.38,24.2
2019-06-13 10:50,52.1103666666667,-97.42776,18.0,20.4,181,984.00,11.9,67,10.40,11.2,1010.53,24.2
2019-06-13 11:00,52.1034266666667,-97.415915,14.7,20.0,207,984.06,12.4,67,11.55,3.6,1010.58,118.7
2019-06-13 11:10,52.1034883333333,-97.41595,13.5,15.2,221,983.93,12.6,67,11.97,0.0,1010.44,118.7
2019-06-13 11:20,52.1033,-97.41623,13.8,16.1,222,983.89,12.6,66,12.02,0.1,1010.41,118.7
2019-06-13 11:30,52.0844966666667,-97.400955,18.6,24.4,200,983.62,12.7,66,12.13,7.6,1010.13,118.7
2019-06-13 11:40,52.0662716666667,-97.3610433333333,16.5,18.6,178,983.82,12.5,63,12.33,11.0,1010.35,118.7
2019-06-13 11:50,52.04911,-97.324185,15.3,20.1,191,983.87,12.6,60,12.81,10.2,1010.39,118.7
2019-06-13 12:00,52.035755,-97.28947,15.3,19.0,197,983.80,13.0,59,12.74,9.1,1010.31,125.5
2019-06-13 12:10,52.0244366666667,-97.2436,13.8,20.0,187,983.85,13.1,62,12.37,10.9,1010.35,125.5
2019-06-13 12:20,52.0141866666667,-97.1962566666667,12.2,14.0,186,983.88,13.2,63,12.35,11.1,1010.38,125.5
2019-06-13 12:30,52.00357,-97.1496616666667,12.8,14.7,184,983.86,13.4,63,12.67,11.0,1010.33,125.5
2019-06-13 12:40,51.9931516666667,-97.103285,12.3,13.7,192,983.87,13.7,62,12.80,10.9,1010.36,125.5
2019-06-13 12:50,51.9970366666667,-97.0548083333333,5.4,12.8,193,984.01,14.4,62,12.86,10.8,1010.45,125.5
2019-06-13 13:00,52.0011316666667,-97.0410333333333,9.5,15.5,246,983.86,14.3,62,13.05,3.4,1010.29,114.9
2019-06-13 13:10,52.0011533333333,-97.041045,13.2,15.2,248,983.61,14.2,61,13.07,0.0,1010.04,114.9
2019-06-13 13:20,52.00108,-97.0413883333333,12.8,14.9,245,983.56,14.3,60,13.08,0.1,1009.98,114.9
2019-06-13 13:30,51.99571,-97.03737,13.4,16.1,234,983.54,14.5,61,13.12,2.1,1009.96,114.9
2019-06-13 13:40,51.9896316666667,-97.03257,12.2,13.5,230,983.58,14.6,63,13.23,2.4,1009.99,114.9
2019-06-13 13:50,51.983345,-97.0283533333333,12.1,13.2,229,983.52,14.7,63,13.26,2.4,1009.90,114.9
2019-06-13 14:00,51.9739516666667,-97.0195366666667,12.4,17.5,222,983.43,14.9,62,13.25,3.9,1009.80,117.8
2019-06-13 14:10,51.9458766666667,-97.00025,14.6,17.4,198,983.20,15.2,61,13.29,11.0,1009.54,117.8
2019-06-13 14:20,51.9181666666667,-96.9797916666667,16.6,20.6,199,983.13,15.3,64,13.46,11.0,1009.47,117.8
2019-06-13 14:30,51.8902616666667,-96.96002,18.5,20.7,212,983.17,15.8,58,13.60,11.0,1009.46,117.8
2019-06-13 14:40,51.86309,-96.9384033333333,16.4,20.1,201,983.07,15.7,63,13.82,10.9,1009.34,117.8
2019-06-13 14:50,51.8524083333333,-96.8930233333333,14.2,19.0,186,983.26,15.4,64,13.85,10.8,1009.55,117.8
2019-06-13 15:00,51.85037,-96.882225,12.7,14.5,227,983.15,15.7,59,13.85,2.5,1009.42,126.3
2019-06-13 15:10,51.85027,-96.8820483333333,12.2,14.5,225,983.20,15.7,58,13.86,0.1,1009.47,126.3
2019-06-13 15:20,51.85029,-96.8820783333333,11.7,12.9,227,983.00,16.0,60,13.84,0.0,1009.24,126.3
2019-06-13 15:30,51.85034,-96.8821466666667,12.2,13.6,230,982.93,16.3,58,13.86,0.0,1009.15,126.3
2019-06-13 15:40,51.8503133333333,-96.8821233333333,11.2,12.1,230,982.94,16.4,59,13.89,0.0,1009.16,126.3
2019-06-13 15:50,51.850295,-96.882085,11.0,12.3,235,982.91,16.5,59,13.92,0.0,1009.11,126.3
2019-06-13 16:00,51.85033,-96.8821066666667,11.6,13.1,233,982.82,16.7,58,13.94,0.0,1008.99,146.9
2019-06-13 16:10,51.8502816666667,-96.8820466666667,12.2,13.3,235,982.82,17.1,56,13.97,0.0,1008.97,146.9
2019-06-13 16:20,51.8503233333333,-96.882245,11.7,12.8,231,982.70,17.2,57,14.02,0.0,1008.82,146.9
2019-06-13 16:30,51.8487,-96.883595,12.2,18.3,225,982.65,17.2,57,14.05,0.7,1008.77,146.9
2019-06-13 16:40,51.8198283333333,-96.8905783333333,21.9,23.4,218,982.08,17.5,57,13.99,10.5,1008.19,146.9
2019-06-13 16:50,51.7894533333333,-96.88345,19.8,22.8,213,982.25,18.2,52,14.45,11.1,1008.32,146.9
2019-06-13 17:00,51.7642383333333,-96.8552166666667,17.4,21.9,203,982.36,19.9,40,14.16,11.0,1008.36,154.1
2019-06-13 17:10,51.738285,-96.8281016666667,18.0,23.1,212,982.23,20.2,35,13.89,11.1,1008.20,154.1
2019-06-13 17:20,51.7109083333333,-96.8046116666667,17.3,22.5,217,982.09,21.7,25,13.86,11.2,1007.97,154.1
2019-06-13 17:30,51.68364,-96.780625,16.5,20.4,212,982.18,21.6,24,14.00,11.2,1008.07,154.1
2019-06-13 17:40,51.656165,-96.7571933333333,15.7,22.3,213,982.19,22.0,22,14.19,11.2,1008.05,154.1
2019-06-13 17:50,51.6289433333333,-96.7341716666667,15.4,24.4,168,981.95,20.1,42,14.38,11.1,1007.88,154.1
2019-06-13 18:00,51.6014083333333,-96.7129016666667,21.5,23.9,154,981.46,16.9,66,14.65,11.0,1007.51,157.1
2019-06-13 18:10,51.5726683333333,-96.69742,22.4,25.8,161,981.31,16.6,66,14.49,10.9,1007.36,157.1
2019-06-13 18:20,51.5440216666667,-96.6823133333333,22.4,26.8,163,981.21,16.9,64,14.72,10.9,1007.24,157.1
2019-06-13 18:30,51.5156516666667,-96.66695,24.1,26.2,167,981.11,17.2,61,14.85,10.8,1007.11,157.1
2019-06-13 18:40,51.4872383333333,-96.6519483333333,23.4,25.2,166,981.12,17.5,60,14.85,10.8,1007.08,157.1
2019-06-13 18:50,51.4587266666667,-96.636815,23.2,24.8,166,981.11,17.7,57,14.88,10.8,1006.98,157.1
2019-06-13 19:00,51.4300316666667,-96.6215566666667,21.0,23.0,167,981.29,18.1,54,14.86,10.9,1007.14,158.9
2019-06-13 19:10,51.4011383333333,-96.6071683333333,21.4,24.1,164,981.15,18.9,47,15.06,10.9,1006.89,158.9
2019-06-13 19:20,51.3724016666667,-96.5924816666667,20.8,26.8,172,981.36,19.1,48,15.11,10.9,1007.09,158.9
2019-06-13 19:30,51.3434233333333,-96.5829783333333,26.8,29.7,182,980.93,18.6,47,14.85,10.6,1006.66,158.9
2019-06-13 19:40,51.3159616666667,-96.602555,26.2,27.7,188,980.76,18.8,44,14.63,10.8,1006.56,158.9
2019-06-13 19:50,51.2880516666667,-96.6202783333333,24.6,27.8,187,980.78,19.2,41,14.70,10.8,1006.71,158.9
2019-06-13 20:00,51.2597666666667,-96.6328066666667,24.1,26.6,178,980.68,19.2,39,14.71,10.6,1006.62,164.6
2019-06-13 20:10,51.23103,-96.61706,24.2,26.6,168,980.62,19.3,42,14.69,10.9,1006.54,164.6
2019-06-13 20:20,51.2023216666667,-96.600535,23.2,26.8,176,980.91,18.7,50,14.90,11.0,1006.85,164.6
2019-06-13 20:30,51.173605,-96.60873,21.5,26.8,183,980.90,18.7,44,14.74,10.5,1006.83,164.6
2019-06-13 20:40,51.144465,-96.6217433333333,20.3,22.0,182,980.94,17.3,58,14.58,10.9,1006.92,164.6
2019-06-13 20:50,51.1142966666667,-96.6279833333333,21.2,22.4,177,980.80,17.4,55,14.58,11.0,1006.76,164.6
2019-06-13 21:00,51.0840083333333,-96.634225,20.9,22.2,175,980.83,17.6,53,14.59,11.0,1006.75,174.5
2019-06-13 21:10,51.0539666666667,-96.64285,19.6,20.6,174,980.92,17.6,54,14.71,11.0,1006.82,174.5
2019-06-13 21:20,51.024025,-96.65163,20.2,22.5,176,980.76,17.9,51,14.80,11.0,1006.67,174.5
2019-06-13 21:30,50.993705,-96.6578633333333,20.6,22.7,172,980.63,18.3,48,14.89,11.0,1006.50,174.5
2019-06-13 21:40,50.96351,-96.6651666666667,19.4,20.3,172,980.58,18.2,50,14.75,11.0,1006.45,174.5
2019-06-13 21:50,50.9353833333333,-96.6828883333333,19.1,20.3,178,980.46,18.4,49,14.81,10.9,1006.32,174.5
2019-06-13 22:00,50.9077016666667,-96.7029516666667,19.4,20.3,178,980.32,18.6,47,14.92,11.0,1006.15,185.6
2019-06-13 22:10,50.8800366666667,-96.7231216666667,19.0,20.6,176,980.20,19.3,43,15.02,11.0,1006.04,185.6
2019-06-13 22:20,50.851595,-96.7406866666667,18.0,19.4,173,980.16,19.2,46,15.17,11.0,1005.99,185.6
2019-06-13 22:30,50.8232316666667,-96.7583533333333,18.3,19.5,177,980.03,18.8,53,15.36,11.0,1005.94,185.6
2019-06-13 22:40,50.7949366666667,-96.776345,18.9,20.5,179,979.96,18.8,55,15.45,11.0,1005.86,185.6
2019-06-13 22:50,50.7663933333333,-96.7937466666667,18.9,20.4,181,979.97,19.1,54,15.49,11.0,1005.85,185.6
2019-06-13 23:00,50.7380483333333,-96.8118566666667,17.9,19.3,181,979.95,19.0,61,15.61,11.0,1005.83,192.3
2019-06-13 23:10,50.7096033333333,-96.829695,17.3,18.9,182,979.91,19.3,58,15.88,11.0,1005.77,192.3
2019-06-13 23:20,50.6810883333333,-96.8475716666667,15.3,16.9,181,979.81,20.3,46,16.14,11.0,1005.60,192.3
2019-06-13 23:30,50.6527266666667,-96.86629,14.3,16.2,178,979.73,20.9,43,16.49,11.1,1005.49,192.3
